Previsão horária em Barra de Maldonado

Hoje, 20 Outubro, Terça-feira

Tempo Temperatura Precipitação Vento Pressão Humidade
00:00 +12°C° 0.1 mm 7 m/s 761 mmHg 84%
01:00 +12°C° 0.1 mm 8 m/s 762 mmHg 77%
02:00 +11°C° 0 mm 8 m/s 762 mmHg 69%
03:00 +11°C° 0.1 mm 8 m/s 762 mmHg 72%
04:00 +10°C° 0.1 mm 8 m/s 763 mmHg 75%
05:00 +9°C° 0.1 mm 8 m/s 763 mmHg 78%
06:00 +9°C° 0.6 mm 7 m/s 764 mmHg 83%
07:00 +9°C° 0.6 mm 6 m/s 765 mmHg 87%
08:00 +9°C° 0 mm 5 m/s 766 mmHg 90%
09:00 +9°C° 1 mm 5 m/s 766 mmHg 90%
10:00 +8°C° 1 mm 5 m/s 766 mmHg 90%
11:00 +8°C° 1 mm 5 m/s 766 mmHg 90%
12:00 +8°C° 1.9 mm 6 m/s 766 mmHg 90%
13:00 +9°C° 1.9 mm 6 m/s 766 mmHg 91%
14:00 +9°C° 1.9 mm 6 m/s 766 mmHg 91%
15:00 +9°C° 0 mm 7 m/s 766 mmHg 85%
16:00 +10°C° 0 mm 7 m/s 766 mmHg 80%
17:00 +11°C° 0 mm 8 m/s 766 mmHg 74%
18:00 +11°C° 0 mm 8 m/s 767 mmHg 73%
19:00 +11°C° 0 mm 8 m/s 767 mmHg 71%
20:00 +11°C° 0 mm 8 m/s 767 mmHg 69%
21:00 +10°C° 0 mm 7 m/s 767 mmHg 70%
22:00 +10°C° 0 mm 7 m/s 767 mmHg 71%
23:00 +10°C° 0 mm 7 m/s 767 mmHg 72%

Amanhã, 21 Outubro, Quarta-feira

Tempo Temperatura Precipitação Vento Pressão Humidade
00:00 +10°C° 0 mm 7 m/s 767 mmHg 75%
01:00 +9°C° 0 mm 7 m/s 767 mmHg 78%
02:00 +9°C° 0 mm 6 m/s 767 mmHg 80%
03:00 +9°C° 0 mm 6 m/s 767 mmHg 82%
04:00 +9°C° 0 mm 6 m/s 767 mmHg 83%
05:00 +9°C° 0 mm 6 m/s 768 mmHg 84%
06:00 +11°C° 0 mm 6 m/s 768 mmHg 78%
07:00 +12°C° 0 mm 7 m/s 768 mmHg 71%
08:00 +15°C° 0 mm 8 m/s 769 mmHg 65%
09:00 +16°C° 0 mm 8 m/s 769 mmHg 63%
10:00 +16°C° 0 mm 8 m/s 769 mmHg 62%
11:00 +17°C° 0 mm 8 m/s 769 mmHg 61%
12:00 +17°C° 0 mm 8 m/s 768 mmHg 61%
13:00 +17°C° 0 mm 8 m/s 768 mmHg 62%
14:00 +17°C° 0 mm 8 m/s 768 mmHg 62%
15:00 +16°C° 0 mm 8 m/s 767 mmHg 65%
16:00 +15°C° 0 mm 8 m/s 767 mmHg 68%
17:00 +14°C° 0 mm 7 m/s 767 mmHg 71%
18:00 +14°C° 0 mm 7 m/s 767 mmHg 72%
19:00 +12°C° 0 mm 7 m/s 767 mmHg 72%
20:00 +11°C° 0 mm 7 m/s 768 mmHg 73%
21:00 +12°C° 0 mm 7 m/s 767 mmHg 73%
22:00 +12°C° 0 mm 7 m/s 767 mmHg 74%
23:00 +12°C° 0 mm 7 m/s 767 mmHg 74%

Depois de amanhã, 22 Outubro, Quinta-feira

Tempo Temperatura Precipitação Vento Pressão Humidade
00:00 +12°C° 0.2 mm 7 m/s 767 mmHg 79%
01:00 +12°C° 0.2 mm 7 m/s 766 mmHg 84%
02:00 +11°C° 0.2 mm 7 m/s 766 mmHg 88%
03:00 +11°C° 0 mm 7 m/s 766 mmHg 89%
04:00 +11°C° 0 mm 7 m/s 766 mmHg 89%
05:00 +11°C° 0 mm 7 m/s 766 mmHg 90%
06:00 +13°C° 0.1 mm 6 m/s 766 mmHg 89%
07:00 +13°C° 0.1 mm 6 m/s 766 mmHg 89%
08:00 +14°C° 0.1 mm 6 m/s 767 mmHg 88%
09:00 +14°C° 0.4 mm 7 m/s 766 mmHg 89%
10:00 +13°C° 0.4 mm 8 m/s 766 mmHg 91%
11:00 +13°C° 0.4 mm 8 m/s 766 mmHg 92%
12:00 +13°C° 0.1 mm 8 m/s 765 mmHg 91%
13:00 +15°C° 0.1 mm 9 m/s 765 mmHg 89%
14:00 +15°C° 0.1 mm 9 m/s 764 mmHg 88%
15:00 +15°C° 0 mm 9 m/s 764 mmHg 87%
16:00 +15°C° 0 mm 8 m/s 764 mmHg 87%
17:00 +15°C° 0 mm 8 m/s 764 mmHg 86%
18:00 +15°C° 0.1 mm 8 m/s 764 mmHg 88%
19:00 +13°C° 0.1 mm 8 m/s 764 mmHg 90%
20:00 +14°C° 0.1 mm 7 m/s 764 mmHg 93%
21:00 +14°C° 0.1 mm 7 m/s 763 mmHg 92%
22:00 +15°C° 0.1 mm 6 m/s 763 mmHg 92%
23:00 +15°C° 0.1 mm 6 m/s 763 mmHg 92%

23 Outubro, Sexta-feira

Tempo Temperatura Precipitação Vento Pressão Humidade
00:00 +15°C° 0 mm 6 m/s 763 mmHg 91%
01:00 +15°C° 0 mm 6 m/s 762 mmHg 91%
02:00 +15°C° 0 mm 5 m/s 762 mmHg 91%
03:00 +15°C° 0 mm 5 m/s 762 mmHg 92%
04:00 +15°C° 0 mm 4 m/s 762 mmHg 92%
05:00 +15°C° 0 mm 4 m/s 762 mmHg 92%
06:00 +17°C° 0 mm 4 m/s 762 mmHg 90%
07:00 +17°C° 0 mm 5 m/s 762 mmHg 87%
08:00 +19°C° 0 mm 5 m/s 762 mmHg 84%
09:00 +20°C° 0 mm 5 m/s 762 mmHg 81%
10:00 +21°C° 0 mm 5 m/s 761 mmHg 79%
11:00 +22°C° 0 mm 5 m/s 761 mmHg 76%
12:00 +23°C° 0 mm 6 m/s 761 mmHg 76%
13:00 +23°C° 0 mm 6 m/s 760 mmHg 75%
14:00 +23°C° 0 mm 6 m/s 760 mmHg 75%
15:00 +22°C° 0 mm 6 m/s 760 mmHg 78%
16:00 +21°C° 0 mm 7 m/s 760 mmHg 82%
17:00 +21°C° 0 mm 7 m/s 759 mmHg 85%
18:00 +20°C° 0 mm 7 m/s 760 mmHg 88%
19:00 +18°C° 0 mm 7 m/s 760 mmHg 91%
20:00 +17°C° 0 mm 6 m/s 760 mmHg 95%
21:00 +17°C° 0 mm 6 m/s 760 mmHg 93%
22:00 +17°C° 0 mm 6 m/s 759 mmHg 92%
23:00 +17°C° 0 mm 6 m/s 759 mmHg 91%

24 Outubro, Sábado

Tempo Temperatura Precipitação Vento Pressão Humidade
00:00 +17°C° 0 mm 6 m/s 759 mmHg 92%
01:00 +17°C° 0 mm 5 m/s 759 mmHg 93%
02:00 +17°C° 0 mm 5 m/s 759 mmHg 94%
03:00 +17°C° 0 mm 5 m/s 759 mmHg 94%
04:00 +17°C° 0 mm 5 m/s 759 mmHg 94%
05:00 +17°C° 0 mm 5 m/s 759 mmHg 94%
06:00 +20°C° 0 mm 5 m/s 759 mmHg 89%
07:00 +21°C° 0 mm 5 m/s 759 mmHg 84%
08:00 +22°C° 0 mm 6 m/s 759 mmHg 80%
09:00 +23°C° 0 mm 6 m/s 758 mmHg 78%
10:00 +23°C° 0 mm 6 m/s 758 mmHg 77%
11:00 +24°C° 0 mm 6 m/s 758 mmHg 75%
12:00 +26°C° 0 mm 6 m/s 757 mmHg 73%
13:00 +26°C° 0 mm 6 m/s 757 mmHg 72%
14:00 +27°C° 0 mm 7 m/s 757 mmHg 70%
15:00 +26°C° 0 mm 7 m/s 756 mmHg 74%
16:00 +24°C° 0 mm 7 m/s 756 mmHg 78%
17:00 +23°C° 0 mm 7 m/s 755 mmHg 81%
18:00 +22°C° 0 mm 7 m/s 755 mmHg 85%
19:00 +20°C° 0 mm 7 m/s 755 mmHg 89%
20:00 +19°C° 0 mm 6 m/s 755 mmHg 93%
21:00 +18°C° 0 mm 7 m/s 755 mmHg 90%
22:00 +20°C° 0 mm 7 m/s 755 mmHg 88%
23:00 +20°C° 0 mm 7 m/s 755 mmHg 86%

25 Outubro, Domingo

Tempo Temperatura Precipitação Vento Pressão Humidade
00:00 +20°C° 0 mm 7 m/s 755 mmHg 85%
01:00 +21°C° 0 mm 7 m/s 754 mmHg 84%
02:00 +21°C° 0 mm 7 m/s 754 mmHg 83%
03:00 +20°C° 0 mm 7 m/s 754 mmHg 85%
04:00 +20°C° 0 mm 7 m/s 754 mmHg 87%
05:00 +20°C° 0 mm 7 m/s 754 mmHg 88%
06:00 +21°C° 0 mm 7 m/s 754 mmHg 85%
07:00 +22°C° 0 mm 7 m/s 753 mmHg 82%
08:00 +23°C° 0 mm 8 m/s 753 mmHg 78%
09:00 +24°C° 0 mm 8 m/s 753 mmHg 76%
10:00 +26°C° 0 mm 7 m/s 753 mmHg 73%
11:00 +28°C° 0 mm 7 m/s 753 mmHg 70%
12:00 +28°C° 0.1 mm 7 m/s 752 mmHg 68%
13:00 +29°C° 0.1 mm 7 m/s 751 mmHg 67%
14:00 +30°C° 0.1 mm 7 m/s 751 mmHg 65%
15:00 +28°C° 0.8 mm 7 m/s 750 mmHg 69%
16:00 +27°C° 0.8 mm 6 m/s 750 mmHg 74%
17:00 +26°C° 0.8 mm 6 m/s 749 mmHg 78%
18:00 +24°C° 0.7 mm 6 m/s 750 mmHg 83%
19:00 +23°C° 0.7 mm 7 m/s 750 mmHg 87%
20:00 +22°C° 0.7 mm 7 m/s 750 mmHg 91%
21:00 +21°C° 1 mm 6 m/s 750 mmHg 93%
22:00 +21°C° 1 mm 6 m/s 749 mmHg 94%
23:00 +21°C° 1 mm 6 m/s 749 mmHg 95%

26 Outubro, Segunda-feira

Tempo Temperatura Precipitação Vento Pressão Humidade
00:00 +21°C° 0.9 mm 5 m/s 749 mmHg 95%
01:00 +21°C° 0.9 mm 5 m/s 748 mmHg 95%
02:00 +21°C° 0.9 mm 5 m/s 748 mmHg 95%
03:00 +20°C° 1.8 mm 4 m/s 748 mmHg 96%
04:00 +20°C° 1.8 mm 4 m/s 747 mmHg 96%
05:00 +20°C° 1.8 mm 3 m/s 747 mmHg 97%
06:00 +19°C° 1.9 mm 4 m/s 747 mmHg 96%
07:00 +19°C° 1.9 mm 4 m/s 747 mmHg 94%
08:00 +17°C° 1.9 mm 5 m/s 748 mmHg 93%
09:00 +19°C° 0.1 mm 5 m/s 748 mmHg 91%
10:00 +19°C° 0.1 mm 6 m/s 748 mmHg 88%
11:00 +19°C° 0.1 mm 6 m/s 748 mmHg 85%
12:00 +17°C° 0.1 mm 7 m/s 748 mmHg 84%
13:00 +17°C° 0.1 mm 7 m/s 748 mmHg 82%
14:00 +17°C° 0.1 mm 8 m/s 748 mmHg 81%
15:00 +16°C° 0.1 mm 8 m/s 749 mmHg 81%
16:00 +15°C° 0.1 mm 9 m/s 749 mmHg 80%
17:00 +13°C° 0.1 mm 9 m/s 750 mmHg 79%
18:00 +12°C° 0 mm 9 m/s 750 mmHg 79%
19:00 +11°C° 0 mm 9 m/s 750 mmHg 78%
20:00 +10°C° 0 mm 9 m/s 750 mmHg 78%
21:00 +9°C° 0.1 mm 10 m/s 750 mmHg 77%
22:00 +11°C° 0.1 mm 10 m/s 750 mmHg 76%
23:00 +11°C° 0.1 mm 10 m/s 749 mmHg 75%
Mostrar mais